Regional Weather Roundup
Issued by NWS

Home | Current Version | Previous Version | Graphics & Text | Print | Product List | Glossary On
Versions: 1 2 3 4 5 6 7 8 9 10 11 12 13 14 15 16 17 18 19 20 21 22 23 24 25 26 27 28 29 30 31 32 33 34 35 36 37 38 39 40 41 42 43 44 45 46 47 48 49 50
000
ASUS45 KCYS 231210
RWRWY

WYOMING REGIONAL WEATHER ROUNDUP
NATIONAL WEATHER SERVICE CHEYENNE WY
600 AM MDT SAT JUL 23 2016

NOTE:  "FAIR" INDICATES FEW OR NO CLOUDS BELOW 12,000 FEET
WITH NO SIGNIFICANT WEATHER AND/OR OBSTRUCTIONS TO VISIBILITY.

WYZ001-231300-
YELLOWSTONE NATIONAL PARK

CITY           SKY/WX    TMP DP  RH WIND       PRES   REMARKS
LK YELLOWSTONE   N/A     37  27  67 CALM      30.31S
6HR MIN TEMP:  37; 6HR MAX TEMP:  54;

W YELLOWSTONE  NOT AVBL

$$
WYZ002>013-054>058-071-098>099-231300-
NORTHERN WYOMING

CITY           SKY/WX    TMP DP  RH WIND       PRES   REMARKS
JACKSON        FAIR      52  25  35 S5        30.22S
CODY           FAIR      61  41  48 NW7       30.12R
GREYBULL       FAIR      71  40  32 NW16      29.98R
6HR MIN TEMP:  67; 6HR MAX TEMP:  77;

WORLAND        FAIR      62  44  51 SW8       30.02R
6HR MIN TEMP:  60; 6HR MAX TEMP:  72;

SHERIDAN       FAIR      64  41  42 W12       30.06S
6HR MIN TEMP:  62; 6HR MAX TEMP:  86;

BUFFALO        FAIR      64  39  39 N18G28    30.09R
6HR MIN TEMP:  64; 6HR MAX TEMP:  81;

GILLETTE       FAIR      63  49  60 NW16      30.03R
6HR MIN TEMP:  63; 6HR MAX TEMP:  78;

HULETT         FAIR      70  52  52 NW10G21   30.00R
NEWCASTLE      FAIR      64  52  63 NW5       29.95R

$$
WYZ014>020-022>026-101>103-231300-
CENTRAL WYOMING

CITY           SKY/WX    TMP DP  RH WIND       PRES   REMARKS
BIG PINEY      FAIR      42  23  46 N7        30.28R
6HR MIN TEMP:  40; 6HR MAX TEMP:  61;

PINEDALE       FAIR      37  36  93 NW6       30.29R WCI  33
DUBOIS         FAIR      46  19  34 NW9       30.23R HAZE
LANDER         FAIR      58  38  47 E7        30.10R
6HR MIN TEMP:  58; 6HR MAX TEMP:  76;

RIVERTON       FAIR      58  41  53 W9        30.10R
6HR MIN TEMP:  58; 6HR MAX TEMP:  71;

CASPER         FAIR      67  44  43 SW8       30.06R
6HR MIN TEMP:  65; 6HR MAX TEMP:  71;

DOUGLAS          N/A    N/A N/A N/A MISG      30.03R

$$
WYZ021-027>030-104>119-231300-
SOUTHERN WYOMING

CITY           SKY/WX    TMP DP  RH WIND       PRES   REMARKS
EVANSTON       FAIR      60  34  37 CALM      30.30R
6HR MIN TEMP:  57; 6HR MAX TEMP:  68;

KEMMERER         N/A     52  27  37 NW10      30.30S
FORT BRIDGER   FAIR      60  32  35 W9        30.32R
ROCK SPRINGS   FAIR      60  37  42 SW9       30.26R
6HR MIN TEMP:  59; 6HR MAX TEMP:  71;

DIXON          FAIR      55  46  72 E7        30.28R
RAWLINS        FAIR      66  41  40 SW16G24   30.22R
6HR MIN TEMP:  65; 6HR MAX TEMP:  73;

SARATOGA       FAIR      61  41  48 CALM      30.25S
LARAMIE        FAIR      59  41  51 NE8       30.25R
6HR MIN TEMP:  56; 6HR MAX TEMP:  67;

CHEYENNE       FAIR      65  43  44 W13       30.13S
6HR MIN TEMP:  64; 6HR MAX TEMP:  74;

TORRINGTON     FAIR      62  60  93 W3        29.95F
6HR MIN TEMP:  61; 6HR MAX TEMP:  69;

PINE BLUFFS    FAIR      64  55  72 S6        30.07R

$$



USA.gov is the U.S. government's official web portal to all federal, state and local government web resources and services.